Home   Weather   Ittoqqortoormiit   Past weeks
Flag for Greenland

Past Weather in Ittoqqortoormiit, Greenland — Yesterday and Last 2 Weeks

Now
37 °F

Sunny.


Feels Like: 37 °F
Forecast: 42 / 36 °F
Wind: 2 mph from South

Location: Scoresbysund

Current Time: Jun 25, 2019 at 9:49:23 am

Latest Report: Jun 25, 2019 at 9:00 am


Visibility: 12 mi

Pressure: 29.84 "Hg

Humidity: 80%

Dew Point: 32 °F

Location of IttoqqortoormiitLocation

Past Weather in Ittoqqortoormiit — Graph

°F

Ittoqqortoormiit Temperature Yesterday

Maximum temperature yesterday: 56 °F (at 11:00 am)
Minimum temperature yesterday: 34 °F (at 1:00 am)
Average temperature yesterday: 44 °F

High & Low Weather Summary for the Past Weeks

 TemperatureHumidityPressure
High56 °F (Jun 24, 11:00 am)98% (Jun 11, 3:00 am)30.48 "Hg (Jun 11, 3:00 am)
Low28 °F (Jun 11, 4:00 am)36% (Jun 24, 11:00 am)29.73 "Hg (Jun 23, 5:00 am)
Average39 °F76%30.04 "Hg
* Reported Jun 10 7:00 am — Jun 25 7:00 am, Ittoqqortoormiit. Weather by CustomWeather, © 2019

Note: Actual official high and low records may vary slightly from our data, if they occured in-between our weather recording intervals... More about our weather records

Advertising

Ittoqqortoormiit Weather History for the Previous 24 Hours

Scroll right to see more
 ConditionsComfort  
Time TempWeatherWind HumidityBarometerVisibility
7:00 am
Tue, Jun 25
39 °FPartly sunny.1 mph78%29.80 "Hg17 mi
6:00 am38 °FOvercast.1 mph79%29.79 "Hg16 mi
5:00 am37 °FPassing clouds.1 mph80%29.78 "Hg22 mi
4:00 am35 °FOvercast.6 mph88%29.78 "Hg19 mi
3:00 am40 °FOvercast.5 mph71%29.79 "Hg28 mi
2:00 am39 °FOvercast.1 mph73%29.80 "Hg28 mi
1:00 am39 °FOvercast.1 mph73%29.80 "Hg31 mi
12:00 am41 °FOvercast.5 mph68%29.82 "Hg31 mi
11:00 pm
Mon, Jun 24
38 °FOvercast.16 mph76%29.83 "Hg31 mi
10:00 pm38 °FScattered clouds.20 mph75%29.86 "Hg31 mi
9:00 pm44 °FPassing clouds.5 mph61%29.89 "Hg31 mi
8:00 pm45 °FPassing clouds.3 mph57%29.92 "Hg31 mi
7:00 pm49 °FPassing clouds.6 mph47%29.92 "Hg31 mi
6:00 pm46 °FPassing clouds.3 mph54%29.95 "Hg31 mi
5:00 pm52 °FSunny.6 mph41%29.96 "Hg31 mi
3:00 pm50 °FSunny.2 mph52%29.98 "Hg25 mi
2:00 pm48 °FSunny.2 mph53%29.99 "Hg28 mi
1:00 pm50 °FSunny.3 mph48%30.00 "Hg22 mi
12:00 pm52 °FSunny.3 mph45%30.00 "Hg22 mi
11:00 am56 °FSunny.2 mph36%30.00 "Hg31 mi
10:00 am54 °FSunny.2 mph48%29.99 "Hg28 mi
9:00 am51 °FSunny.1 mph53%29.99 "Hg31 mi
Weather by CustomWeather, © 2019

See weather overview